PAGA Airport Information

Runway Information
Runway 06 Length 2786 ft width 80 ft
Elevation 146 ft Threshold 0 ft Heading 90
Runway 24 Length 2786 ft Width 80 ft
Elevation 148 ft Threshold 0 ft Heading 270
Runway 07 Length 7254 ft width 150 ft
Elevation 147 ft Threshold 606 ft Heading 90
Runway 25 Length 7254 ft Width 150 ft
Elevation 152 ft Threshold 0 ft Heading 270
Airport Frequencies
Type AWOS Name AWOS 3 Frequency 132.525 MHZ
Type CNTR Name ANCHORAGE Frequency 127 MHZ
Type CTAF Name CTAF Frequency 123 MHZ
Type FSS Name FAIRBANKS Frequency 122.2 MHZ
Type OPS Name GALENA OPS Frequency 39.12 MHZ
Type PMSV Name PMSV METRO Frequency 134.5 MHZ
Airport Navaids
Type VORTAC Name Galena Frequency 114800 KHZ
Airport Weather Information & NOTAM
ADDS - METARS form results

(1438 UTC 22 July 2018)
 
METAR text: PAGA 221356Z AUTO 10005KT 10SM CLR 16/14 A3018 RMK AO2 SLP221 T01560139
Conditions at: PAGA (GALENA , AK, US) observed 1356 UTC 22 July 2018
Temperature: 15.6°C (60°F)
Dewpoint: 13.9°C (57°F) [RH = 90%]
Pressure (altimeter): 30.18 inches Hg (1022.1 mb)
[Sea-level pressure: 1022.1 mb]
Winds: from the E (100 degrees) at 6 MPH (5 knots; 2.6 m/s)
Visibility: 10 or more miles (16+ km)
Ceiling: at least 12,000 feet AGL
Clouds: sky clear below 12,000 feet AGL
Weather: automated observation with no human augmentation;
there may or may not be significant weather present at this time